Wind_Speed
32 31 31 38 32 33 34 35 36 33 36 38 37 36 36 35 37 34 30 30 32 22 19 25 20 18 17 15 18 17 12 12 15 17 16 15 15 13 10 9 7 4 7
30 30 29 32 30 29 28 30 32 36 37 39 38 38 38 36 35 40 36 31 34 32 26 24 18 17 17 16 17 18 16 11 27 21 18 17 15 14 12 10 8 7 6
27 26 25 27 24 18 22 31 35 37 37 39 41 42 44 44 39 43 39 36 31 27 25 24 22 18 18 18 20 19 19 20 23 22 19 18 15 13 11 9 8 7 5
26 23 21 19 17 17 21 26 31 34 37 38 40 42 46 46 44 42 42 36 32 29 28 28 26 23 20 20 21 24 21 22 22 20 19 18 16 15 12 11 9 8 6
19 21 20 11 12 16 23 28 31 34 38 40 39 38 40 42 40 39 34 35 35 31 25 26 26 22 21 19 19 23 22 20 21 20 17 17 15 15 14 11 10 10 5
20 20 15 13 14 16 18 20 24 26 28 30 31 35 36 33 37 38 34 29 30 27 25 23 18 22 24 24 21 22 20 21 19 19 16 17 16 16 12 12 11 10 9
19 16 15 13 15 14 14 16 20 23 25 28 30 32 29 28 38 37 32 24 24 25 24 23 20 19 27 22 23 22 19 19 17 16 18 17 16 15 13 12 9 8 6
16 11 13 16 15 14 19 23 26 29 29 29 32 32 32 33 33 31 28 29 27 25 26 25 24 26 23 22 22 16 16 16 17 15 21 17 15 15 12 8 10 8 9
12 11 15 19 18 20 20 23 27 31 31 30 30 31 31 34 34 35 28 26 27 25 23 25 26 25 24 22 27 24 18 15 14 16 19 18 20 19 13 9 10 11 9
13 16 21 20 22 21 25 26 26 29 27 30 28 26 27 30 28 30 27 26 21 19 21 20 23 26 26 26 26 24 20 16 18 18 16 15 13 14 16 12 9 9 7
16 14 19 21 22 22 26 28 30 27 30 28 28 27 26 28 29 30 24 25 24 22 20 18 19 25 23 20 19 16 18 22 18 17 14 12 11 10 10 11 11 7 9
15 14 16 20 23 26 28 27 28 29 27 25 24 22 20 23 28 28 23 19 22 20 19 18 19 22 20 17 15 14 18 18 17 13 11 10 10 8 7 7 10 9 9
10 12 16 18 22 26 27 27 26 25 24 22 21 20 21 22 25 26 23 19 20 16 18 19 21 22 20 18 14 17 18 13 12 11 11 11 11 10 9 8 7 9 8
4 10 15 17 17 19 20 24 24 23 22 22 21 21 22 23 24 26 25 21 18 19 20 19 25 21 15 14 13 15 12 12 12 12 12 12 12 10 11 9 8 8 7
7 11 14 14 18 16 17 15 18 19 23 24 23 25 27 24 25 27 28 27 24 22 23 24 23 20 17 14 13 13 11 11 11 12 12 13 12 11 11 10 9 9 8
9 10 13 10 15 13 15 15 13 16 16 18 20 23 20 22 29 30 28 28 24 26 23 22 19 18 17 17 16 14 13 12 12 12 12 12 12 12 11 10 10 10 9
7 7 10 12 13 16 15 14 13 14 13 16 20 24 26 26 30 32 30 28 26 25 17 17 18 18 17 14 14 14 15 15 13 12 12 12 11 10 9 11 11 10 11
6 7 10 10 12 15 17 16 16 14 13 14 17 21 23 27 31 31 29 28 25 17 16 17 15 15 14 15 15 14 14 14 14 12 11 11 10 10 11 11 11 11 11
8 8 8 9 10 11 12 15 15 15 14 15 17 17 24 29 31 30 28 22 20 17 15 15 14 15 14 12 13 13 13 13 13 12 11 11 10 11 12 12 12 10 9
11 11 10 12 12 13 13 14 15 15 14 14 14 18 25 29 26 26 17 18 17 15 14 13 12 14 14 14 13 13 13 13 13 13 12 11 10 11 12 12 12 11 10
9 10 10 10 11 10 10 11 12 13 13 12 13 18 25 21 21 21 15 16 15 15 14 13 14 14 15 15 14 15 15 15 15 13 12 11 11 11 11 11 11 11 10
7 8 10 10 10 9 10 10 11 13 14 14 14 18 19 13 14 16 15 15 14 13 13 14 13 14 14 14 14 15 15 15 14 14 13 12 11 11 10 11 10 11 11
8 8 9 10 11 11 11 12 12 13 14 14 15 16 12 12 13 13 13 13 13 11 10 11 12 11 11 11 12 13 14 14 14 14 13 12 11 11 11 11 11 10 10
9 9 10 10 11 12 12 13 13 13 14 15 15 14 12 12 12 12 12 12 12 12 12 12 12 12 12 13 13 13 12 11 12 13 12 12 10 10 9 9 9 9 8
10 12 12 11 12 13 13 13 13 14 13 15 15 13 11 12 11 11 12 12 11 12 12 12 11 13 11 10 10 10 11 13 11 10 11 9 9 9 9 8 7 6 8
12 13 13 12 12 14 15 15 14 14 14 14 14 13 12 11 11 12 11 11 11 12 11 10 9 9 11 11 12 13 11 11 10 10 9 8 8 8 8 8 7 8 7
Wind_Direction
302 304 305 313 255 215 197 197 196 190 183 175 168 165 161 161 158 155 158 160 153 145 149 149 161 182 186 181 169 168 181 184 135 133 150 157 160 150 148 143 127 133 69
302 298 299 304 264 211 197 189 182 176 169 164 159 152 151 150 151 159 156 160 156 153 161 152 174 185 179 179 177 161 164 165 142 151 162 163 161 157 149 147 146 140 116
301 290 295 289 264 221 189 178 172 162 159 158 157 156 155 160 166 164 161 158 149 156 162 158 175 185 188 187 186 146 150 143 148 152 158 163 157 160 155 156 164 156 156
299 284 279 277 235 193 173 164 160 160 159 160 162 161 161 163 165 163 162 155 162 166 166 174 175 190 192 195 169 148 149 142 148 151 155 157 162 167 171 167 176 171 161
288 265 263 251 218 184 169 168 166 166 167 166 163 162 159 160 163 159 156 160 167 171 172 174 183 191 187 187 169 154 152 151 153 155 161 166 163 174 184 180 172 164 151
295 255 230 204 201 184 178 172 170 168 167 162 160 155 156 160 161 157 155 157 162 160 164 170 173 183 183 178 169 156 160 157 163 165 166 170 170 175 167 173 164 176 166
291 256 215 191 185 186 177 168 156 148 147 144 147 149 146 151 163 158 154 158 158 164 170 161 167 178 182 172 165 164 162 164 166 174 168 167 169 172 169 173 176 181 145
269 245 210 188 186 173 162 155 144 140 136 138 142 142 144 150 156 156 152 162 163 167 166 170 167 176 168 167 161 152 152 162 164 155 154 151 159 166 163 182 177 144 129
242 222 217 199 191 173 158 146 146 140 138 142 143 140 146 151 160 157 162 163 166 163 167 171 177 165 164 155 161 152 148 147 157 162 166 168 164 161 161 162 171 172 172
236 197 201 193 184 171 159 152 145 141 133 142 144 157 159 156 165 164 161 154 149 151 159 166 169 161 161 170 168 155 142 147 148 140 135 137 145 162 171 172 177 202 146
284 204 186 180 176 172 158 154 145 143 142 144 148 160 164 166 163 164 157 156 154 155 156 157 162 166 165 164 163 158 160 154 146 141 140 137 133 136 160 177 166 161 170
266 208 184 174 164 162 156 149 148 145 142 139 136 135 152 160 168 165 162 161 158 155 159 159 166 163 158 152 147 161 159 153 148 145 148 151 154 153 146 150 157 163 158
235 186 173 166 159 159 150 146 144 144 142 144 144 141 146 157 164 166 161 158 156 161 162 166 161 159 159 149 159 163 161 156 160 160 169 177 170 168 162 143 130 129 136
150 158 149 142 141 151 148 150 148 148 148 151 154 152 154 160 163 165 162 154 161 157 156 159 154 156 155 156 155 163 167 173 172 173 179 178 171 165 180 170 160 171 158
126 130 128 135 137 141 141 151 158 165 164 161 165 162 161 167 174 170 161 160 159 158 148 149 155 160 160 164 173 174 178 179 178 183 183 176 184 187 191 187 192 195 200
108 113 117 118 124 131 127 128 153 162 165 164 165 164 165 167 173 171 164 159 160 158 150 159 166 169 171 173 180 181 189 190 192 198 189 187 197 196 192 193 206 213 214
65 102 117 127 137 131 129 130 122 135 155 168 171 178 181 173 174 169 168 168 170 162 166 172 169 173 176 172 184 185 189 192 194 199 194 198 205 204 199 203 210 216 226
76 112 129 145 155 151 153 146 139 136 131 136 164 170 178 170 167 166 166 156 154 169 169 169 174 175 173 181 181 182 189 188 191 200 200 200 199 208 207 218 216 219 225
82 96 114 118 125 127 131 124 133 133 130 133 138 150 163 163 160 156 160 157 162 167 165 168 171 167 176 181 181 185 187 189 191 196 201 199 200 211 218 218 226 220 228
73 78 96 106 113 114 123 122 124 124 131 137 146 148 152 149 151 157 162 162 165 164 159 157 161 173 181 181 181 178 182 192 194 201 202 198 202 212 224 223 223 213 221
58 66 77 89 94 108 116 120 124 126 129 136 136 151 158 159 158 164 163 164 165 166 166 162 172 184 186 184 180 186 195 200 201 201 204 200 202 211 221 223 221 226 238
68 76 75 81 90 97 101 108 116 120 126 123 128 144 151 150 155 164 165 159 161 163 168 177 182 187 191 189 192 195 200 203 199 200 207 199 195 208 219 223 220 223 224
85 92 99 92 95 99 103 110 119 124 125 129 135 143 151 150 154 154 151 156 161 165 172 173 176 178 182 188 195 200 204 205 205 200 199 192 197 209 216 220 222 223 227
93 92 93 98 99 98 101 103 111 117 123 128 135 143 140 142 147 150 158 163 167 167 169 172 174 174 178 187 193 198 198 199 194 190 194 196 198 207 218 219 224 220 229
100 103 103 105 105 108 111 111 113 119 121 130 137 141 134 135 138 148 157 159 162 166 171 173 170 179 181 188 191 182 179 180 174 183 194 195 205 212 212 224 219 219 217
103 105 105 107 112 111 114 114 113 115 121 130 135 139 137 134 136 147 145 149 151 157 164 169 174 167 164 169 172 184 187 184 180 178 183 201 208 201 201 217 213 222 218
Height
680 674 667 658 648 642 639 648 652 660 665 674 679 688 696 709 710 718 733 743 744 757 765 761 778 789 790 791 788 791 794 796 801 816 824 827 830 831 836 838 839 839 837
668 667 658 654 646 637 635 640 646 652 660 668 675 683 692 703 708 715 728 739 737 746 758 759 778 790 788 790 790 788 793 795 798 811 819 825 827 829 832 836 839 840 838
662 660 652 648 645 639 636 637 642 648 656 665 672 679 685 696 709 707 718 731 734 745 756 760 774 783 787 789 793 783 789 792 799 806 816 821 824 828 831 834 837 837 838
657 653 650 645 642 639 639 640 643 650 656 662 669 676 683 692 704 711 720 720 731 749 755 764 771 780 784 790 786 782 787 791 798 805 814 819 822 825 829 832 836 836 837
653 650 646 641 643 640 640 642 645 650 655 661 668 676 683 691 701 709 714 722 733 746 755 761 769 777 781 785 784 782 787 791 796 803 810 816 819 824 826 829 831 834 836
652 647 645 641 644 642 645 647 650 655 659 663 671 676 684 692 698 707 717 728 738 745 754 762 768 773 776 782 781 782 786 790 795 800 805 810 816 821 822 826 828 830 832
650 645 643 640 644 645 647 650 652 654 661 665 671 679 686 693 702 707 718 731 737 745 753 755 764 771 777 778 780 785 786 789 794 799 800 806 813 818 821 824 825 826 827
651 646 643 641 644 647 648 651 651 652 661 665 675 680 687 696 703 714 720 731 738 748 751 755 760 767 770 773 779 786 787 789 792 793 796 804 808 815 817 821 823 825 827
649 645 643 643 643 646 647 650 655 659 665 675 679 681 691 703 706 711 722 734 743 746 751 757 762 764 767 773 777 782 787 790 792 795 798 801 805 809 813 818 821 823 827
647 644 642 644 645 650 651 654 657 662 668 674 681 692 698 705 711 718 724 733 744 751 755 761 763 763 768 772 777 781 785 791 793 796 800 804 806 809 814 816 818 820 821
644 641 641 642 645 649 653 655 658 667 672 681 689 697 703 709 715 722 728 734 740 749 755 759 763 766 769 775 779 784 786 788 794 796 801 804 805 809 813 816 815 817 819
642 640 640 641 644 648 653 658 664 670 676 684 691 697 704 710 716 722 730 735 740 745 752 757 761 766 772 778 781 785 787 791 795 799 803 806 809 812 813 816 814 816 818
642 642 642 641 644 650 653 659 667 673 676 683 690 695 704 713 719 725 729 735 741 747 753 756 762 769 774 776 780 785 789 793 797 799 802 809 808 812 816 818 817 815 817
646 647 645 647 648 653 657 661 665 670 677 683 690 697 704 713 718 723 728 734 742 749 752 757 763 770 775 777 782 786 789 793 794 796 802 807 808 808 815 814 815 820 819
650 651 648 649 651 658 661 666 670 674 677 680 688 694 700 708 715 720 723 731 741 748 753 759 765 769 772 778 783 786 790 792 794 796 801 804 806 808 810 811 814 818 817
654 653 652 656 657 662 664 671 676 679 682 685 691 695 703 708 714 719 726 734 740 747 752 757 763 767 770 775 780 784 788 791 793 797 799 800 804 804 805 809 812 814 815
656 657 656 657 661 667 671 675 679 685 689 691 695 699 703 707 714 721 728 734 740 747 750 757 759 764 769 772 777 781 784 789 793 795 797 798 801 803 803 807 810 811 813
664 664 667 670 673 672 673 676 680 684 689 694 697 701 706 709 715 723 728 736 741 747 749 753 760 764 766 771 776 779 783 786 789 793 794 795 798 800 803 806 808 809 810
670 671 671 671 672 673 675 678 681 686 691 695 700 705 709 713 718 725 730 734 740 746 749 753 757 760 767 771 774 775 780 783 787 790 791 793 796 799 801 804 806 807 808
674 674 674 674 676 676 680 681 684 687 694 698 703 706 712 718 722 730 733 737 740 744 748 750 754 760 765 768 771 773 778 782 786 788 789 791 794 797 799 801 803 804 807
675 676 677 678 678 681 684 686 688 691 695 700 704 709 713 717 722 728 731 736 740 743 747 748 754 759 762 765 768 772 776 779 782 785 787 789 793 795 797 799 801 802 803
682 681 682 683 683 686 686 688 691 695 699 704 709 713 716 720 723 728 732 736 739 741 744 748 752 756 759 763 767 771 774 776 779 782 785 788 790 793 795 797 798 800 801
684 686 687 688 689 691 692 694 697 700 703 707 711 715 720 724 727 730 733 736 738 741 746 749 752 755 759 762 766 769 772 774 776 779 782 785 788 792 793 795 796 797 799
686 688 689 690 692 694 696 699 702 704 706 709 714 719 721 724 728 731 733 736 739 743 747 750 753 756 759 762 765 767 770 772 775 778 781 784 787 790 792 793 794 795 797
691 692 694 696 697 699 701 703 705 708 710 713 718 721 724 725 728 731 735 738 741 744 748 751 754 756 759 762 764 767 769 772 775 777 780 783 786 788 790 791 792 794 796
695 696 697 699 702 703 705 707 710 712 714 718 720 723 725 728 730 734 737 740 743 746 749 752 755 757 760 763 765 767 770 772 775 777 780 782 784 786 788 790 792 793 795